Stations météo

réclame
Mon MeteoGroup
Gueret-St Laurent, France (7361): Température de l'air & dewpoint: 17.09.2019 13:00:00 - 23.09.2019 13:00:00 (CEST)Gueret-St Laurent, France (7361): Température de l'air 5cm: 17.09.2019 13:00:00 - 23.09.2019 13:00:00 (CEST)Gueret-St Laurent, France (7361): Température de l'air -20cm & Température de l'air -100cm: 17.09.2019 13:00:00 - 23.09.2019 13:00:00 (CEST)Gueret-St Laurent, France (7361): Vitesse du vent & gusts: 17.09.2019 13:00:00 - 23.09.2019 13:00:00 (CEST)Gueret-St Laurent, France (7361): Direction du vent: 17.09.2019 13:00:00 - 23.09.2019 13:00:00 (CEST)Gueret-St Laurent, France (7361): reduced air pressure: 17.09.2019 13:00:00 - 23.09.2019 13:00:00 (CEST)Gueret-St Laurent, France (7361): visibility: 17.09.2019 13:00:00 - 23.09.2019 13:00:00 (CEST)Gueret-St Laurent, France (7361): Ensoleillement: 17.09.2019 13:00:00 - 23.09.2019 13:00:00 (CEST)Gueret-St Laurent, France (7361): Quantités de précipitations: 17.09.2019 13:00:00 - 23.09.2019 13:00:00 (CEST)
Date & Time tt [°C] td [°C] tt 5cm [°C] tt -20cm [°C] tt -100cm [°C] ff [km/h] ff [knt] fx [km/h] fx [knt] dd ppp [hPa] vv [km] sd [min] rr [mm]
23.09.2019 13:00:00 18,2 10,6 21,1 18,0 18,3 11 6 25 13 SSW 1018,1 20 36 0,0
23.09.2019 12:00:00 17,5 11,1 18,5 18,0 18,2 9 5 27 14 SW 1018,7 20 41 0,0
23.09.2019 11:00:00 16,4 11,5 17,7 18,1 18,2 9 5 22 12 SW 1018,9 20 44 0,0
23.09.2019 10:00:00 14,8 11,9 12,6 18,2 18,3 8 4 15 8 S 1019,0 20 46 0,0
23.09.2019 09:00:00 11,1 11,1 7,6 18,3 18,3 2 1 6 3 SSE 1019,4 20 48 0,0
23.09.2019 08:00:00 8,2 8,1 4,6 18,3 18,3 3 1 8 4 ESE 1019,5 13 0 0,2
23.09.2019 07:00:00 8,5 7,6 6,0 18,4 18,3 3 1 6 3 ENE 1019,0 0,7 0 0,0
23.09.2019 06:00:00 11,5 10,6 7,1 18,4 18,3 6 4 12 6 S 1018,1 20 0 0,0
23.09.2019 05:00:00 12,1 11,2 8,9 18,5 18,3 6 3 12 7 SSW 1017,8 20 0 0,0
23.09.2019 04:00:00 12,0 11,1 8,4 18,5 18,2 5 3 10 5 SSW 1017,6 20 0 0,0
23.09.2019 03:00:00 12,3 11,2 9,0 18,6 18,3 3 1 11 6 S 1017,4 20 0 0,0
23.09.2019 02:00:00 13,3 11,4 11,1 18,6 18,2 5 3 13 7 S 1017,2 20 0 0,0
23.09.2019 01:00:00 13,7 11,7 11,6 18,7 18,3 8 4 16 9 SSW 1016,6 20 0 0,2
23.09.2019 00:00:00 13,7 11,9 11,5 18,7 18,3 6 4 18 10 SSW 1016,0 20 0 0,0
22.09.2019 23:00:00 13,6 12,2 11,7 18,7 18,2 7 4 16 9 SSW 1015,7 20 0 0,0
22.09.2019 22:00:00 14,4 12,4 12,3 18,7 18,2 8 4 22 12 SSW 1014,9 20 0 0,0
22.09.2019 21:00:00 14,3 12,5 12,7 18,7 18,2 6 4 20 11 SSW 1014,4 20 0 0,0
22.09.2019 20:00:00 14,2 12,6 12,9 18,7 18,3 3 1 10 5 S 1013,7 12 0 0,0
22.09.2019 19:00:00 15,3 12,6 15,0 18,7 18,3 6 3 16 9 S 1013,3 20 33 0,0
22.09.2019 18:00:00 15,5 13,2 14,6 18,7 18,2 10 5 16 9 S 1012,7 20 4 0,0
22.09.2019 17:00:00 14,6 13,3 14,0 18,8 18,3 3 1 10 6 SW 1012,6 20 0 0,4
22.09.2019 16:00:00 15,1 13,0 14,8 18,8 18,3 5 3 14 8 SW 1012,4 20 0 0,2
22.09.2019 15:00:00 14,8 12,7 14,5 18,8 18,3 7 4 16 9 SW 1012,4 20 0 0,2
22.09.2019 14:00:00 14,2 13,4 13,9 18,8 18,3 5 3 24 13 W 1012,2 16 0 2,2
22.09.2019 13:00:00 14,4 13,6 14,4 18,8 18,3 6 3 20 11 W 1011,7 7 0 5,1
22.09.2019 12:00:00 15,2 13,7 14,7 18,8 18,3 11 6 33 18 WNW 1011,1 7 0 2,8
22.09.2019 11:00:00 19,5 15,2 17,5 18,9 18,3 21 11 33 18 SSW 1009,0 16 0 0,2
22.09.2019 10:00:00 20,2 14,1 19,1 18,9 18,2 16 8 29 16 S 1008,4 20 0 0,0
22.09.2019 09:00:00 19,3 14,1 16,5 18,9 18,3 19 10 42 23 S 1008,2 20 0 0,0
22.09.2019 08:00:00 16,8 13,5 15,9 19,0 18,3 5 3 12 7 ENE 1008,6 20 0 0,0
22.09.2019 07:00:00 16,9 13,2 16,0 18,9 18,2 5 3 10 5 E 1008,4 20 0 0,0
22.09.2019 06:00:00 16,9 13,0 15,1 19,0 18,3 7 4 16 9 ESE 1008,1 20 0 0,0
22.09.2019 05:00:00 15,7 12,8 14,3 19,0 18,3 8 4 18 10 E 1008,7 20 0 0,0
22.09.2019 04:00:00 16,0 12,7 13,8 19,0 18,3 10 5 19 10 E 1008,8 20 0 0,0
22.09.2019 03:00:00 18,3 12,9 14,3 19,0 18,3 15 8 25 13 SSE 1008,7 20 0 0,0
22.09.2019 02:00:00 16,4 13,1 13,9 19,0 18,3 8 4 15 8 ESE 1009,2 20 0 0,0
22.09.2019 01:00:00 16,3 13,2 14,5 19,0 18,2 7 4 13 7 ESE 1009,2 20 0 0,0
22.09.2019 00:00:00 16,8 13,7 15,1 19,0 18,3 6 3 13 7 ESE 1009,4 20 0 0,0
21.09.2019 23:00:00 17,2 13,9 15,3 18,9 18,3 6 3 16 9 SE 1009,7 20 0 0,0
21.09.2019 22:00:00 18,1 14,4 16,1 18,8 18,3 6 3 14 8 ESE 1009,8 20 0 0,0
21.09.2019 21:00:00 18,8 14,9 17,2 18,7 18,3 4 2 17 9 ESE 1009,7 20 0 0,0
21.09.2019 20:00:00 19,7 15,1 17,3 18,6 18,3 9 5 44 24 ESE 1009,5 20 0 0,2
21.09.2019 19:00:00 25,3 12,8 24,8 18,5 18,3 13 7 27 15 S 1008,6 20 0 0,0
21.09.2019 18:00:00 26,9 12,5 26,3 18,4 18,3 12 6 34 19 SSW 1008,3 20 33 0,0
21.09.2019 17:00:00 28,5 12,0 29,7 18,3 18,3 16 9 33 18 S 1008,4 20 51 0,0
21.09.2019 16:00:00 28,4 12,3 29,7 18,2 18,3 17 9 30 16 S 1008,9 20 37 0,0
21.09.2019 15:00:00 27,2 12,8 29,3 18,2 18,3 16 9 36 20 S 1010,1 20 49 0,0
21.09.2019 14:00:00 27,8 13,0 30,7 18,1 18,3 16 9 31 17 S 1010,7 20 51 0,0
21.09.2019 13:00:00 27,5 12,3 32,0 18,2 18,3 16 9 33 18 SSE 1011,1 20 60 0,0
21.09.2019 12:00:00 25,9 12,4 29,6 18,2 18,3 16 9 31 17 S 1011,7 20 60 0,0
21.09.2019 11:00:00 23,5 13,1 25,3 18,3 18,3 11 6 21 11 ESE 1012,6 20 60 0,0
21.09.2019 10:00:00 19,8 12,5 17,6 18,3 18,3 7 4 11 6 ESE 1013,5 20 60 0,0
21.09.2019 09:00:00 14,0 11,2 9,2 18,4 18,3 2 1 8 4 ESE 1014,4 20 60 0,0
21.09.2019 08:00:00 10,5 9,3 7,0 18,5 18,3 6 4 9 5 ESE 1015,1 20 1 0,0
21.09.2019 07:00:00 10,2 8,0 6,5 18,5 18,3 4 2 8 4 E 1014,9 20 0 0,0
21.09.2019 06:00:00 10,3 8,4 6,1 18,6 18,3 5 3 6 3 SE 1015,1 20 0 0,0
21.09.2019 05:00:00 11,6 9,2 8,4 18,6 18,3 0 0 7 4 N 1015,2 20 0 0,0
21.09.2019 04:00:00 12,6 9,8 9,7 18,6 18,3 3 2 11 6 E 1015,5 20 0 0,0
21.09.2019 03:00:00 12,6 9,2 9,3 18,6 18,3 2 1 9 5 E 1015,8 20 0 0,0
21.09.2019 02:00:00 12,9 7,8 9,7 18,6 18,3 4 2 10 5 E 1016,3 20 0 0,0
21.09.2019 01:00:00 13,5 7,0 10,3 18,6 18,3 5 3 10 5 E 1016,3 20 0 0,0
21.09.2019 00:00:00 13,5 6,6 9,6 18,6 18,3 6 4 9 5 E 1016,7 20 0 0,0
20.09.2019 23:00:00 14,6 7,2 10,8 18,5 18,3 4 2 9 5 SE 1016,8 20 0 0,0
20.09.2019 22:00:00 18,4 5,6 13,3 18,4 18,4 3 2 13 7 S 1016,2 20 0 0,0
20.09.2019 21:00:00 21,0 4,9 16,4 18,3 18,4 6 3 14 7 S 1015,7 20 0 0,0
20.09.2019 20:00:00 22,8 5,7 18,1 18,2 18,3 3 2 23 12 WSW 1015,1 20 0 0,0
20.09.2019 19:00:00 25,8 5,4 24,8 18,1 18,3 13 7 27 14 E 1014,6 20 57 0,0
20.09.2019 18:00:00 28,2 6,9 29,7 18,0 18,3 10 6 21 12 ESE 1014,2 20 60 0,0
20.09.2019 17:00:00 29,1 8,2 33,3 17,9 18,4 6 3 19 11 S 1014,4 20 60 0,0
20.09.2019 16:00:00 28,9 9,1 34,5 17,8 18,3 4 2 18 10 S 1015,1 20 60 0,0
20.09.2019 15:00:00 27,8 9,1 34,7 17,8 18,3 6 3 21 11 ESE 1016,1 20 60 0,0
20.09.2019 14:00:00 26,9 8,8 34,3 17,8 18,3 5 3 20 11 ESE 1016,7 20 60 0,0
20.09.2019 13:00:00 25,4 9,6 32,3 17,9 18,4 4 2 10 6 N 1017,5 20 60 0,0
20.09.2019 12:00:00 22,6 5,5 25,3 17,9 18,3 4 2 13 7 E 1018,6 20 60 0,0
20.09.2019 11:00:00 17,7 4,3 18,4 18,0 18,3 7 4 13 7 SE 1019,7 20 60 0,0
20.09.2019 10:00:00 12,0 3,5 10,6 18,1 18,3 6 3 10 6 E 1020,9 20 60 0,0
20.09.2019 09:00:00 6,9 2,4 1,5 18,2 18,4 6 3 9 5 E 1021,6 20 60 0,0
20.09.2019 08:00:00 2,7 0,9 -1,2 18,3 18,4 6 3 9 5 E 1022,3 20 2 0,0
20.09.2019 07:00:00 2,7 0,9 -1,2 18,4 18,4 4 2 6 3 ESE 1022,1 20 0 0,0
20.09.2019 06:00:00 2,9 0,1 -0,2 18,5 18,4 6 3 9 5 E 1022,4 20 0 0,0
20.09.2019 05:00:00 4,0 0,9 0,3 18,6 18,4 6 3 7 4 ESE 1022,5 20 0 0,0
20.09.2019 04:00:00 5,9 1,4 1,8 18,6 18,4 4 2 14 7 SSE 1022,7 20 0 0,0
20.09.2019 03:00:00 8,0 1,2 3,5 18,7 18,4 7 4 13 7 SE 1022,9 20 0 0,0
20.09.2019 02:00:00 9,8 1,2 3,9 18,7 18,4 5 3 11 6 SE 1023,0 20 0 0,0
20.09.2019 01:00:00 9,3 1,0 2,7 18,7 18,3 4 2 8 5 S 1023,1 20 0 0,0
20.09.2019 00:00:00 10,0 0,8 3,4 18,7 18,4 4 2 9 5 E 1023,3 20 0 0,0
19.09.2019 23:00:00 11,5 0,9 4,6 18,7 18,3 2 1 16 8 E 1023,2 20 0 0,0
19.09.2019 22:00:00 14,3 0,9 9,0 18,7 18,3 5 3 16 9 NE 1022,5 20 0 0,0
19.09.2019 21:00:00 16,3 1,6 12,4 18,7 18,4 11 6 22 12 NNE 1021,9 20 0 0,0
19.09.2019 20:00:00 18,0 1,5 15,0 18,6 18,3 11 6 32 18 NNE 1021,0 20 3 0,0
19.09.2019 19:00:00 20,3 1,7 19,8 18,6 18,3 22 12 34 19 NE 1020,3 20 60 0,0
19.09.2019 18:00:00 21,6 1,8 23,0 18,5 18,3 16 9 35 19 NE 1020,2 20 60 0,0
19.09.2019 17:00:00 21,5 1,7 25,3 18,4 18,3 22 12 36 19 NE 1020,3 20 60 0,0
19.09.2019 16:00:00 21,6 0,7 27,2 18,4 18,3 19 10 34 19 ENE 1020,6 20 60 0,0
19.09.2019 15:00:00 21,1 0,8 27,2 18,4 18,3 19 10 40 22 ENE 1021,0 20 60 0,0
19.09.2019 14:00:00 20,2 0,1 26,0 18,4 18,3 23 12 36 20 ENE 1021,6 20 60 0,0
19.09.2019 13:00:00 19,3 1,3 25,3 18,5 18,3 26 14 48 26 NE 1022,1 20 60 0,0
19.09.2019 12:00:00 18,0 3,1 22,7 18,6 18,3 19 10 36 19 E 1022,7 20 60 0,0
19.09.2019 11:00:00 16,0 3,1 19,0 18,7 18,3 18 10 31 17 ENE 1022,8 20 60 0,0
19.09.2019 10:00:00 13,5 3,6 12,8 18,8 18,3 15 8 22 12 E 1022,9 20 60 0,0
19.09.2019 09:00:00 8,7 4,1 1,6 18,9 18,3 5 3 9 5 SSE 1023,3 20 60 0,0
19.09.2019 08:00:00 3,2 1,6 -0,3 19,0 18,3 0 0 9 5 N 1023,9 20 4 0,0
19.09.2019 07:00:00 3,2 1,2 -0,4 19,1 18,3 3 1 7 4 E 1023,5 20 0 0,0
19.09.2019 06:00:00 3,6 0,8 0,3 19,2 18,3 2 1 6 3 NNW 1023,5 20 0 0,0
19.09.2019 05:00:00 4,7 1,4 0,6 19,3 18,3 0 0 6 3 N 1023,4 20 0 0,0
19.09.2019 04:00:00 5,7 1,2 1,0 19,3 18,3 4 2 5 3 S 1023,3 20 0 0,0
19.09.2019 03:00:00 6,8 1,1 2,3 19,4 18,3 2 1 5 3 S 1023,3 20 0 0,0
19.09.2019 02:00:00 8,3 0,7 3,0 19,4 18,3 0 0 9 5 N 1022,8 20 0 0,0
19.09.2019 01:00:00 11,4 0,8 6,2 19,5 18,3 4 2 17 9 NE 1022,5 20 0 0,0
19.09.2019 00:00:00 13,3 1,3 10,1 19,5 18,3 8 5 24 13 NE 1022,2 20 0 0,0
18.09.2019 23:00:00 14,5 1,7 12,5 19,5 18,3 11 6 26 14 NE 1021,9 20 0 0,0
18.09.2019 22:00:00 15,7 2,1 13,3 19,5 18,3 14 8 27 14 NE 1021,2 20 0 0,0
18.09.2019 21:00:00 16,5 2,5 14,3 19,4 18,3 10 5 23 12 N 1020,4 20 0 0,0
18.09.2019 20:00:00 18,9 3,1 17,4 19,3 18,3 16 9 34 19 N 1019,2 20 4 0,0
18.09.2019 19:00:00 20,9 4,0 20,6 19,3 18,3 19 11 43 23 NNE 1018,5 20 60 0,0
18.09.2019 18:00:00 22,1 4,2 23,4 19,2 18,3 22 12 40 21 NNE 1018,1 20 60 0,0
18.09.2019 17:00:00 22,9 5,8 26,2 19,2 18,3 23 12 40 22 NNE 1017,8 20 60 0,0
18.09.2019 16:00:00 23,0 6,7 28,0 19,1 18,3 23 13 39 21 NNE 1018,1 20 60 0,0
18.09.2019 15:00:00 22,9 6,2 28,7 19,1 18,3 21 11 39 21 NNE 1018,5 20 60 0,0
18.09.2019 14:00:00 22,5 7,5 28,8 19,2 18,3 23 12 34 18 N 1018,6 20 60 0,0
18.09.2019 13:00:00 21,7 7,9 27,6 19,2 18,3 23 12 35 19 NE 1018,6 20 60 0,0
18.09.2019 12:00:00 20,2 9,1 25,6 19,3 18,2 18 10 32 17 ENE 1018,8 20 60 0,0
18.09.2019 11:00:00 18,3 8,5 20,8 19,3 18,3 18 10 27 15 NE 1019,1 20 60 0,0
18.09.2019 10:00:00 15,5 9,2 11,4 19,4 18,3 7 4 16 9 E 1019,4 20 33 0,0
18.09.2019 09:00:00 11,0 8,4 9,8 19,5 18,3 3 2 7 4 ENE 1019,7 20 0 0,0
18.09.2019 08:00:00 10,4 8,3 7,9 19,6 18,2 5 3 8 4 NNE 1019,6 20 0 0,0
18.09.2019 07:00:00 10,5 8,6 7,1 19,6 18,3 0 0 4 2 N 1019,5 20 0 0,0
18.09.2019 06:00:00 11,0 8,7 7,5 19,7 18,2 0 0 6 4 N 1019,0 20 0 0,0
18.09.2019 05:00:00 12,0 9,2 9,3 19,8 18,2 0 0 9 5 N 1019,1 20 0 0,0
18.09.2019 04:00:00 13,1 10,1 10,0 19,8 18,2 5 3 8 4 W 1019,0 20 0 0,0
18.09.2019 03:00:00 13,5 10,5 10,7 19,8 18,2 3 1 7 4 WNW 1019,1 20 0 0,0
18.09.2019 02:00:00 14,3 11,1 10,7 19,8 18,2 2 1 8 4 SE 1019,1 20 0 0,0
18.09.2019 01:00:00 13,9 11,1 10,3 19,8 18,2 0 0 8 4 N 1019,1 20 0 0,0
18.09.2019 00:00:00 15,6 11,6 12,3 19,8 18,2 2 1 14 8 NNW 1019,0 20 0 0,0
17.09.2019 23:00:00 17,2 11,9 14,1 19,8 18,2 5 3 23 13 N 1019,1 20 0 0,0
17.09.2019 22:00:00 18,9 12,4 17,0 19,7 18,2 7 4 27 15 NNE 1018,5 20 0 0,0
17.09.2019 21:00:00 20,6 12,6 19,3 19,6 18,2 17 9 32 17 NNE 1017,6 20 0 0,0
17.09.2019 20:00:00 23,2 10,9 21,8 19,5 18,2 19 10 30 16 NNE 1016,4 20 5 0,0
17.09.2019 19:00:00 25,6 9,8 25,3 19,5 18,2 16 9 30 16 N 1016,0 20 60 0,0
17.09.2019 18:00:00 27,0 8,9 28,4 19,4 18,2 18 10 26 14 NNE 1015,8 20 60 0,0
17.09.2019 17:00:00 27,7 5,3 32,2 19,3 18,2 12 7 28 15 NNE 1015,9 20 60 0,0
17.09.2019 16:00:00 28,0 6,1 33,8 19,2 18,2 15 8 26 14 NE 1016,2 20 60 0,0
17.09.2019 15:00:00 28,2 5,7 34,5 19,2 18,2 16 8 29 16 N 1016,4 20 60 0,0
17.09.2019 14:00:00 27,5 7,9 34,9 19,2 18,1 14 7 27 14 NNE 1016,9 20 60 0,0
17.09.2019 13:00:00 27,1 8,0 33,4 19,3 18,2 13 7 24 13 E 1017,4 20 60 0,0

tt = Température de l'air
td = dewpoint
tt 5cm = Température de l'air 5cm
tt -20cm = Température de l'air -20cm
tt -100cm = Température de l'air -100cm
ff = Vitesse du vent
fx = gusts
dd = Direction du vent
ppp = reduced air pressure
vv = visibility
sd = Ensoleillement
rr = Quantités de précipitations

stations d'obs. à proximité